Total_Precipitation_Accumulation
0.00 0.00 0.00 0.00 0.00 0.00 0.00 0.00 0.01 0.11 0.09 0.06 0.14 0.20 0.25 0.37 0.68 1.07 1.00 1.54 1.34 1.24 1.02 2.21 2.22 1.86 1.28 0.72 0.40 0.28 0.21 0.17 0.18 0.18 0.23 0.33 0.36 0.44 0.30 0.21 0.26 0.36 0.54 0.57 0.60 0.59 0.58 0.65 0.41
0.00 0.00 0.00 0.00 0.00 0.00 0.00 0.00 0.03 0.10 0.18 0.24 0.29 0.20 0.21 0.58 0.50 0.64 0.88 0.92 0.73 0.64 0.73 1.02 1.96 2.09 1.70 1.43 1.11 0.81 0.52 0.23 0.17 0.16 0.32 0.61 0.70 0.76 0.74 0.73 0.62 0.62 0.75 0.85 0.78 0.80 0.74 0.60 0.33
0.00 0.00 0.00 0.00 0.00 0.00 0.00 0.03 0.05 0.09 0.17 0.17 0.13 0.13 0.35 1.05 0.79 0.74 0.60 0.98 1.06 0.75 0.95 0.84 1.33 1.59 1.80 2.03 2.31 1.93 1.36 0.78 0.47 0.51 0.78 1.04 1.25 1.36 1.22 1.16 1.23 1.23 1.27 1.22 1.30 1.16 0.79 0.48 0.30
0.00 0.00 0.00 0.00 0.00 0.00 0.00 0.01 0.10 0.03 0.10 0.13 0.09 0.13 0.43 0.56 0.63 0.53 0.53 0.90 1.48 1.40 1.64 1.36 1.98 3.03 2.56 2.65 2.98 2.52 2.09 2.08 1.72 1.46 1.03 0.88 0.88 1.01 1.09 1.44 2.05 2.23 2.17 1.72 1.73 1.65 0.86 0.50 0.41
0.00 0.00 0.00 0.00 0.00 0.00 0.00 0.00 0.01 0.06 0.14 0.14 0.13 0.08 0.75 0.71 0.43 0.68 1.16 1.63 2.12 2.10 2.54 1.55 1.86 2.19 2.53 3.19 2.99 2.76 2.68 2.24 2.02 1.91 1.79 1.24 0.97 0.82 0.88 0.94 1.42 2.18 3.50 2.88 1.84 1.36 0.82 0.67 0.70
0.00 0.00 0.00 0.00 0.00 0.00 0.02 0.02 0.06 0.19 0.29 0.30 0.20 0.33 0.73 0.48 0.54 0.83 2.03 2.50 3.24 3.21 3.53 2.56 2.46 2.69 2.06 1.94 3.67 3.13 3.14 2.72 1.84 1.40 2.08 1.43 1.12 1.01 0.95 0.90 0.84 1.12 1.40 1.85 1.77 1.88 1.23 0.79 0.73
0.00 0.00 0.00 0.00 0.00 0.00 0.02 0.10 0.33 0.58 0.32 0.14 0.11 0.51 1.02 0.84 0.59 0.68 1.65 3.75 5.24 6.89 7.62 6.17 3.93 3.42 3.66 2.55 2.45 3.42 3.42 2.90 1.95 1.53 1.33 1.52 1.22 1.09 1.00 0.80 0.78 0.84 0.89 0.94 0.94 0.98 0.99 0.85 0.78
0.00 0.00 0.00 0.00 0.00 0.02 0.08 0.18 0.24 0.28 0.46 0.39 0.14 0.69 1.01 0.65 0.58 0.89 1.23 2.96 4.58 9.21 9.86 7.20 5.26 3.29 1.83 2.56 2.48 2.47 3.32 3.85 2.53 2.01 1.86 1.55 1.48 1.33 0.98 0.78 0.81 1.05 1.01 0.78 0.71 0.73 0.79 0.76 0.67
0.00 0.00 0.00 0.00 0.01 0.04 0.10 0.14 0.33 0.26 0.22 0.31 0.21 0.48 0.64 0.77 0.78 0.84 1.10 1.99 3.82 5.24 5.43 6.78 6.50 4.10 2.83 2.64 2.64 2.23 2.07 3.02 3.85 2.60 2.19 1.90 1.20 1.29 1.05 1.08 1.13 1.19 1.10 1.08 1.05 0.93 0.91 0.85 0.78
0.00 0.00 0.00 0.00 0.01 0.08 0.27 0.30 0.29 0.16 0.34 0.23 0.37 0.53 0.80 0.82 0.65 0.63 0.96 1.32 2.12 2.50 3.43 3.05 3.36 3.11 2.47 3.23 3.29 2.23 2.08 1.62 2.88 3.11 2.43 1.85 1.21 1.22 1.20 1.06 1.18 1.30 1.17 1.25 1.22 1.24 1.30 1.32 1.08
0.00 0.00 0.00 0.00 0.01 0.08 0.10 0.06 0.12 0.07 0.26 0.43 0.81 0.79 0.92 0.77 0.54 0.32 0.42 0.85 0.90 0.98 1.16 1.32 1.60 1.55 1.63 2.15 1.83 1.88 1.86 1.72 1.88 2.85 2.29 1.64 1.24 1.16 1.49 1.02 1.13 1.55 1.64 1.30 1.11 0.97 1.08 1.22 1.49
0.00 0.00 0.00 0.00 0.00 0.01 0.01 0.09 0.18 0.18 0.76 0.41 0.48 0.43 0.56 0.33 0.24 0.27 0.31 0.34 0.35 0.56 0.82 1.10 0.93 1.16 1.37 1.62 1.59 1.28 1.43 1.67 1.68 2.40 2.25 1.60 1.31 1.01 1.22 1.02 1.09 1.78 1.81 1.43 1.11 0.82 0.92 1.17 1.36
0.00 0.00 0.00 0.00 0.03 0.02 0.07 0.04 0.08 0.65 0.29 0.16 0.19 0.21 0.24 0.17 0.12 0.14 0.14 0.16 0.20 0.46 0.80 1.15 0.94 0.97 1.06 0.97 1.03 0.95 0.92 1.27 1.62 1.82 2.16 1.99 1.38 0.92 1.05 1.11 1.32 1.67 1.79 2.01 1.51 1.15 1.16 1.22 1.39
0.00 0.00 0.00 0.00 0.02 0.02 0.04 0.07 0.11 0.65 0.30 0.05 0.06 0.08 0.06 0.08 0.07 0.08 0.05 0.06 0.34 0.66 0.92 1.20 1.49 1.12 1.16 0.90 0.86 0.87 0.82 1.11 1.52 1.73 2.02 2.49 1.95 1.67 1.53 1.63 1.85 1.99 1.95 1.89 1.88 1.45 1.41 1.55 1.45
0.02 0.03 0.01 0.00 0.01 0.02 0.04 0.10 0.17 0.40 0.14 0.05 0.00 0.01 0.07 0.11 0.08 0.09 0.09 0.26 0.41 0.49 0.55 1.52 1.98 1.38 1.22 0.86 0.98 0.98 1.02 0.98 1.05 1.29 1.92 2.41 2.59 2.41 2.18 2.09 2.22 2.38 2.40 2.04 1.84 1.67 1.61 1.53 1.64
0.11 0.17 0.11 0.03 0.01 0.02 0.05 0.49 0.14 0.06 0.07 0.06 0.00 0.03 0.07 0.09 0.10 0.12 0.17 0.21 0.20 0.19 0.39 1.43 1.56 1.17 1.25 1.08 1.29 1.62 1.02 0.73 0.82 0.98 1.30 1.77 2.11 2.11 1.95 2.07 2.11 2.98 3.10 2.45 2.32 2.07 1.94 1.75 1.57
0.23 0.17 0.09 0.02 0.00 0.02 0.05 0.19 0.15 0.05 0.06 0.08 0.01 0.02 0.04 0.04 0.06 0.08 0.11 0.09 0.07 0.09 0.47 1.13 1.09 1.07 1.52 1.93 2.02 1.59 1.03 0.73 0.91 0.84 0.90 1.21 1.88 1.91 1.87 1.98 2.04 2.12 2.70 2.60 2.47 2.21 1.99 2.01 1.85
0.16 0.10 0.04 0.02 0.00 0.02 0.01 0.02 0.15 0.05 0.06 0.07 0.03 0.01 0.01 0.00 0.02 0.06 0.12 0.09 0.13 0.26 0.64 0.80 0.86 1.35 2.10 2.03 1.40 1.26 1.24 1.17 1.18 0.86 0.91 1.14 1.80 1.67 2.17 2.48 2.30 2.88 2.56 2.39 2.49 2.34 2.07 1.72 1.70
0.12 0.13 0.11 0.04 0.00 0.05 0.02 0.02 0.03 0.05 0.07 0.05 0.02 0.01 0.01 0.01 0.03 0.08 0.10 0.13 0.15 0.21 0.58 0.75 0.90 0.81 0.98 1.07 1.19 1.21 1.11 1.20 1.06 0.82 0.90 1.11 1.69 1.86 1.83 2.31 2.44 2.69 2.86 2.75 2.22 2.31 2.65 2.02 1.60
0.24 0.28 0.17 0.06 0.02 0.14 0.10 0.07 0.01 0.03 0.19 0.05 0.02 0.01 0.00 0.01 0.02 0.06 0.08 0.17 0.32 0.52 0.52 0.43 0.35 0.23 0.33 0.55 0.68 0.75 0.75 0.70 0.89 1.08 0.99 1.45 1.65 1.88 1.83 2.14 2.56 2.34 2.89 3.11 2.95 2.38 2.46 2.49 2.36
0.32 0.23 0.14 0.13 0.12 0.23 0.22 0.18 0.05 0.07 0.06 0.06 0.06 0.03 0.01 0.01 0.06 0.11 0.13 0.15 0.16 0.13 0.07 0.09 0.16 0.14 0.26 0.39 0.80 1.41 1.81 1.88 2.07 1.56 1.41 1.64 1.57 1.81 1.94 2.13 2.29 2.67 2.92 3.14 3.45 2.91 2.43 2.60 2.51
1.18 0.61 0.42 0.40 0.59 0.56 0.50 0.81 0.34 0.15 0.03 0.08 0.05 0.06 0.05 0.05 0.06 0.04 0.03 0.03 0.03 0.05 0.09 0.13 0.13 0.22 0.33 0.62 0.88 1.23 1.19 1.19 1.12 1.39 1.61 1.81 2.09 2.11 2.22 2.32 3.13 2.94 3.44 3.47 3.20 3.73 3.01 2.62 2.41
0.63 0.52 0.91 1.35 1.64 1.89 1.37 1.87 1.13 0.31 0.23 0.27 0.20 0.18 0.11 0.09 0.08 0.08 0.05 0.08 0.09 0.07 0.09 0.10 0.15 0.34 0.50 0.79 0.74 1.16 1.57 1.56 1.36 1.54 2.04 2.69 2.24 2.38 2.84 2.79 2.74 3.15 3.54 4.09 3.99 3.91 4.36 3.47 2.61
0.85 1.06 1.38 1.49 1.69 3.07 1.57 1.86 1.93 0.48 0.61 0.52 0.52 0.27 0.16 0.15 0.20 0.19 0.16 0.18 0.17 0.15 0.23 0.12 0.18 0.23 0.50 0.71 1.30 1.93 1.90 1.86 1.97 1.83 1.69 2.16 2.92 2.55 2.85 3.13 2.67 2.55 2.67 3.40 3.77 4.55 4.69 4.80 3.97
1.05 1.94 3.28 3.35 3.38 3.28 1.06 1.19 1.59 0.59 0.47 0.76 0.91 0.58 0.30 0.27 0.23 0.20 0.25 0.35 0.33 0.32 0.39 0.21 0.16 0.21 0.29 0.55 1.08 1.53 2.22 2.75 2.42 2.02 2.07 2.11 3.00 3.55 3.00 2.77 3.22 3.15 2.84 2.93 3.55 3.77 4.29 4.81 5.14
0.60 1.35 3.34 3.81 2.29 1.98 1.02 2.30 2.15 0.80 0.81 0.85 0.62 0.91 0.51 0.54 0.45 0.46 0.78 0.57 0.48 0.57 0.66 0.47 0.31 0.40 0.43 0.63 1.06 1.41 1.87 2.32 3.25 3.43 3.31 3.23 2.92 3.65 4.86 5.04 3.51 3.15 3.77 3.68 3.58 3.92 3.97 4.12 4.60
0.89 1.27 1.39 2.80 2.25 3.26 2.81 3.69 2.54 0.85 1.04 1.48 1.12 0.75 0.78 0.63 0.64 0.77 0.93 0.81 0.74 1.41 1.46 0.93 0.72 0.58 0.61 0.70 1.06 1.52 2.33 2.94 3.08 3.40 4.45 5.36 5.05 3.96 4.87 6.62 6.99 5.35 3.96 4.27 4.27 4.03 3.80 3.55 3.46
1.37 1.60 2.91 4.62 6.40 5.30 2.55 2.33 3.51 2.56 2.58 2.32 1.95 1.50 1.09 0.83 0.79 0.93 1.26 0.82 0.90 1.92 1.67 1.08 1.05 1.18 1.09 0.95 1.04 1.30 1.92 2.83 3.54 3.83 4.53 4.92 6.00 6.81 5.65 5.31 5.77 7.57 7.52 5.71 5.11 4.54 4.01 3.98 3.42
2.56 3.11 3.66 5.15 5.56 5.75 4.40 4.41 3.84 3.39 3.17 2.70 2.76 2.56 1.79 1.41 1.47 1.16 1.34 1.03 0.89 1.34 1.75 1.66 1.37 1.70 1.79 1.88 2.03 1.78 2.21 2.62 3.55 3.93 4.72 5.22 5.18 5.82 7.93 7.24 5.78 6.28 7.40 7.17 6.16 5.22 4.38 4.13 4.25
1.50 2.83 4.17 6.06 5.64 5.29 5.16 5.52 5.21 3.82 2.68 2.23 2.44 2.94 2.56 2.01 2.12 1.73 1.43 1.27 1.15 1.17 1.39 1.91 1.93 2.18 2.47 3.23 3.75 2.92 2.96 3.24 3.43 4.07 4.38 4.38 4.52 5.61 6.78 7.78 8.29 7.35 7.20 7.15 7.78 6.88 5.67 4.86 4.49